INMARSAT 5-F1

导读 | 星芒AI

INMARSAT 5-F1 是一颗由 Inmarsat 运营的宽带通信卫星,于 2014 年 11 月发射,搭载在 Arianespace 的阿丽亚娜 5 号火箭上。该卫星位于东经 64.5 度轨道位置,主要为欧洲、中东、非洲及部分亚洲地区提供高速移动宽带服务。它采用 Inmarsat 的 Global Xpress 系统,支持航空、海事和政府用户的实时通信,显著提升了连接速度与服务质量。

基本信息
目录编号:
39476
目录名称:
INMARSAT 5-F1
国际标识:
2013-073A
轨道中心:
EARTH
卫星名称:
INMARSAT 5-F1
卫星全名:
--
卫星状态:
在轨 (已飞行4388 天)
发射日期:
2013-12-08 UTC
国别 :
(IM)
星等 :
--
轨道信息
数据来源 国际轨道数据 AOE轨道数据
星历时间 2025-12-13T04:37:38+0800
13小时前
查看轨道信息
2025-12-13T07:00:00+0800
10小时前
查看轨道信息
半长轴 42165.513km 42164.672km
偏心率 0.0000102 0.0000235
轨道倾角 0.019° 0.017°
近地点辐角 276.487° 195.482°
升交点赤经 0.541° 11.318°
平近点角 176.808° 282.730°
近地点 35786.947km 35785.546km
远地点 35787.809km 35787.528km
周期 1436.137分钟 1436.094分钟
每日圈数 1.00269 1.00272
详细信息
使用方式:
暂无
2D轨道图
3D轨道图
轨道高度分析图
轨道倾角分析图
轨道综合分析图
查看轨道综合分析图